User: anonymous   Login
Location: Unspecified
(0.0000°N, 0.0000°E)
Time: 09:09:56
(UTC+00:00)
Language:

Orihime - Orbit

View from above orbital plane
View from above orbital plane
View from above satellite
View from above satellite

Ground track
Ground track

The orbit data is extracted from the following two-line orbital elements,

1 25424U 97074E   01058.79120260  .00007950  00000-0  45452-3 0  3375
2 25424  34.9670 285.9104 0001391 294.2847  65.8215 15.11784129141492
Epoch (UTC): 27 February 2001 18:59:19
Eccentricity: 0.0001391
inclination: 34.9670°
perigee height: 530 km
apogee height: 532 km
right ascension of ascending node: 285.9104°
argument of perigee: 294.2847°
revolutions per day: 15.11784129
mean anomaly at epoch: 65.8215°
orbit number at epoch: 14149

The dashed part of the orbit path shows where the satellite is in the earth's shadow,  

DLR